Location: Cisewo
(53.3833°N, 14.9000°E)
Time: 11:51:33
(UTC+00:00)

Cosmos 44 - Pass Details

Date: 18 April 2021
Orbit: 571 x 791 km, 65.1° (Epoch: 14 May)

Event Time Altitude Azimuth Distance (km) Brightness Sun altitude
Rises 20:51:57 0° 242° (WSW) 3,156 6.8 -20.0°
Reaches altitude 10° 20:54:20 10° 247° (WSW) 2,266 6.0 -20.2°
Maximum altitude 20:59:27 52° 324° (NW) 959 4.3 -20.6°
Drops below altitude 10° 21:04:47 10° 41° (NE) 2,359 6.2 -21.0°
Sets 21:07:18 0° 46° (NE) 3,298 7.0 -21.2°
